Wind_Speed
44 44 45 44 42 39 34 30 29 28 29 30 27 26 28 30 33 32 24 19 18 20 22 23 25 31 33 31 28 26 25 24 23 22 22 22 22 22 22 23 23 24 22 22 24 26 26 27 28 27 27 26 26 25 25 24 23 23 23 22 22 22 22 21 20 20 19 19 18 18 18 18 19 20 21 21 22 22 22 22 21 20 19 18 19 19
43 45 46 45 40 34 29 28 28 28 29 31 28 24 22 26 33 31 24 19 18 20 23 23 25 31 34 33 31 30 29 27 24 23 22 22 21 21 22 22 23 23 22 23 25 26 28 28 29 29 29 28 27 26 25 25 24 24 24 23 22 23 23 22 21 20 20 19 19 19 20 20 22 23 23 23 24 24 23 22 21 20 20 20 20 21
42 44 44 40 35 29 27 27 26 26 29 30 30 28 23 23 27 25 19 18 19 21 22 23 27 31 34 35 35 33 33 31 28 26 23 22 22 22 22 21 22 23 22 23 24 26 28 29 29 30 30 30 29 28 27 27 26 25 25 23 23 24 23 22 22 21 21 20 21 22 22 23 24 25 25 25 25 24 22 21 21 21 22 22 23 24
39 38 38 33 29 28 26 26 26 25 28 29 29 30 29 24 20 17 14 14 19 23 23 23 27 32 35 37 39 37 35 34 32 30 27 25 23 22 22 22 22 24 23 22 24 25 27 28 29 30 30 31 30 30 30 29 27 26 25 24 24 24 23 23 23 22 22 23 24 25 25 26 26 26 26 25 25 24 23 22 23 23 24 25 25 25
36 31 30 29 25 26 25 26 27 25 27 28 27 29 29 24 19 17 14 14 18 22 25 23 26 35 40 39 41 40 37 37 35 32 31 28 25 24 23 22 22 23 23 24 25 26 27 28 28 28 29 30 31 32 31 30 28 27 26 26 25 25 25 24 24 24 24 25 26 26 27 27 27 27 26 26 25 24 24 25 25 26 27 27 26 25
33 25 24 27 26 25 26 26 26 25 25 27 27 28 26 21 19 17 14 16 17 17 22 21 18 27 39 41 42 42 40 39 37 35 33 29 27 27 26 23 21 22 23 24 25 26 28 28 27 28 28 29 31 32 32 31 29 28 28 27 27 27 26 26 26 26 27 27 27 28 28 28 28 27 27 26 26 26 27 27 28 28 28 27 26 25
31 27 24 26 26 26 26 25 24 23 23 25 26 25 24 22 21 20 15 13 13 13 15 19 15 19 31 40 41 41 42 42 40 38 35 32 30 29 28 25 23 23 22 23 24 25 27 27 26 27 27 27 29 29 30 30 30 31 30 29 28 28 28 28 28 28 28 29 29 29 29 29 29 29 28 28 28 29 29 30 30 30 29 27 26 26
32 32 29 27 27 26 27 27 25 23 22 24 24 22 26 27 24 24 22 15 13 16 17 20 20 20 31 43 41 38 41 42 44 43 39 35 32 31 30 28 27 25 24 23 24 24 25 25 26 26 25 25 26 26 27 29 30 31 31 30 29 29 29 29 29 29 30 29 29 29 30 31 31 30 30 30 31 31 31 30 30 30 28 27 27 27
34 35 33 32 31 30 31 29 23 22 23 24 22 19 22 22 24 28 27 20 13 14 21 28 23 16 27 43 41 38 42 42 43 43 41 38 35 33 32 30 28 27 26 26 25 24 24 25 25 25 25 25 25 26 26 28 30 31 31 31 31 31 31 31 31 31 30 30 30 30 31 32 31 31 31 32 32 32 32 31 31 30 29 28 28 28
32 33 32 33 36 36 34 28 22 22 23 24 19 17 15 13 20 25 24 20 10 10 25 34 28 15 21 37 40 39 43 44 43 41 39 39 36 34 33 31 29 27 26 27 27 26 25 25 25 26 27 26 26 27 27 28 30 31 31 31 31 32 32 32 32 32 32 31 31 32 32 32 32 32 33 33 33 33 32 32 31 30 29 29 28 29
28 27 28 31 34 35 31 25 22 20 22 21 17 17 17 15 17 20 19 14 6 11 25 28 29 20 14 28 39 43 47 43 40 38 36 37 36 34 33 31 29 28 27 27 28 28 27 26 27 28 29 28 28 28 28 29 29 30 31 31 31 32 33 33 33 33 33 33 33 33 33 33 33 33 34 34 34 34 33 32 32 31 30 30 29 29
27 25 28 32 33 31 26 24 23 21 23 22 19 22 19 12 13 13 12 10 5 9 13 14 22 23 16 23 28 33 43 42 39 39 37 35 34 32 32 31 30 28 27 27 28 29 28 29 29 29 30 29 29 30 29 29 29 30 30 31 31 32 32 33 33 33 34 34 34 34 34 34 33 34 34 34 34 34 34 33 33 32 31 30 30 30
28 29 30 31 32 31 26 25 24 22 25 26 24 24 15 4 5 7 4 5 8 9 5 2 8 20 34 41 34 29 34 34 33 35 35 35 34 32 31 30 30 29 28 28 28 28 29 30 30 31 30 30 31 31 30 30 30 30 31 31 31 31 31 32 32 33 33 34 34 34 34 34 34 34 34 35 35 35 35 34 33 33 31 30 30 30
20 21 30 32 31 32 30 30 31 28 27 29 28 26 19 7 2 5 3 1 8 14 13 7 5 17 35 42 43 44 41 37 34 31 31 32 32 33 32 31 30 30 29 28 27 28 29 30 31 32 32 32 32 32 32 32 31 31 31 31 31 31 32 32 33 33 34 34 34 34 34 34 35 35 35 35 36 35 35 34 34 33 31 30 30 30
21 15 29 37 32 31 32 31 30 29 27 28 29 29 29 23 10 5 6 5 6 8 11 12 9 16 21 18 23 33 37 40 41 39 36 35 32 31 32 32 31 30 29 28 27 27 28 29 32 33 33 33 33 34 34 33 32 32 32 32 32 32 32 33 34 34 35 35 35 35 35 36 36 36 37 37 37 36 36 35 34 33 31 30 31 31
31 20 26 36 34 29 30 31 29 26 27 28 31 30 31 30 17 5 7 12 8 2 6 15 19 25 25 17 12 14 20 27 32 36 38 39 38 34 31 31 31 31 30 29 28 28 28 30 32 33 34 35 35 35 35 34 33 33 32 33 33 33 34 34 35 36 36 36 36 36 36 37 38 38 38 38 37 37 36 35 35 34 32 32 32 32
31 19 17 28 35 30 25 28 31 28 26 27 32 34 31 29 22 9 6 9 6 3 10 18 27 35 32 27 23 19 20 19 18 21 24 28 34 35 34 31 29 29 29 29 30 30 30 31 32 33 34 36 36 35 35 35 35 34 34 34 35 35 36 36 37 36 36 36 36 36 37 37 38 38 39 38 38 37 37 37 37 35 34 34 33 33
32 20 13 19 30 33 25 20 25 28 26 27 33 37 32 24 23 18 6 2 3 3 8 16 26 30 24 23 24 22 25 26 22 20 19 19 22 28 31 30 30 30 28 29 31 30 32 32 32 32 33 35 36 36 36 36 36 36 36 37 37 37 38 38 38 37 37 37 36 37 37 37 38 39 39 39 39 38 38 38 38 37 36 35 35 35
35 21 13 18 23 29 28 21 22 26 28 29 30 34 30 19 20 24 11 2 5 3 4 9 18 25 28 29 25 17 16 20 22 24 25 21 18 21 23 22 27 31 31 32 33 31 32 32 32 32 32 33 36 37 37 37 37 37 38 38 39 39 39 39 39 39 38 37 37 37 38 38 39 40 40 40 40 39 39 39 39 38 37 36 36 36
35 21 13 19 22 22 27 29 31 32 30 27 24 28 32 22 17 25 20 8 5 4 4 4 6 17 32 39 36 28 20 14 13 16 20 18 18 21 20 17 21 26 29 32 34 34 32 31 32 32 31 32 34 36 37 36 37 37 38 39 39 39 39 39 39 39 38 38 38 38 39 39 40 41 42 41 41 40 40 40 39 38 37 36 36 36
33 26 18 20 22 23 28 33 37 37 34 32 30 31 35 27 17 19 24 21 10 2 2 2 4 16 25 24 26 28 25 22 19 17 16 14 16 19 20 21 22 24 28 30 33 35 35 33 32 32 32 32 32 34 35 36 36 37 37 37 38 38 38 38 38 38 38 38 38 38 38 39 40 41 41 41 41 41 40 39 38 37 36 35 35 35
31 29 27 28 29 31 31 32 32 33 34 36 36 37 39 36 27 15 15 27 25 11 6 3 5 23 27 12 10 15 15 18 18 18 18 16 16 18 20 23 25 26 29 29 30 33 35 36 34 33 32 32 33 34 34 35 35 35 36 36 37 38 37 37 37 37 37 37 37 38 38 38 39 39 39 39 39 39 38 37 35 34 34 34 33 32
32 26 25 28 31 29 23 24 27 28 32 35 34 36 39 39 37 25 11 18 26 23 20 9 8 30 37 19 9 10 12 16 17 18 20 20 21 22 22 23 25 27 29 29 30 31 31 34 36 36 35 34 35 35 34 35 34 34 35 35 35 36 36 37 37 37 37 38 38 38 38 38 38 37 37 36 36 35 34 33 33 33 33 32 31 29
33 25 24 23 22 21 15 16 22 23 29 36 38 39 38 39 43 36 19 13 17 24 26 13 10 29 36 25 19 14 12 14 14 16 20 20 19 19 19 21 22 24 27 27 28 29 29 30 31 33 34 34 35 35 35 35 35 34 35 34 35 35 35 36 37 37 38 38 38 39 38 38 37 36 35 34 33 32 31 31 31 31 31 29 28 27
33 26 27 22 12 9 9 9 17 25 32 38 42 40 38 39 40 38 31 18 13 24 27 13 16 34 34 25 23 18 14 14 12 14 17 17 18 18 16 17 18 21 23 24 25 25 26 26 26 27 28 29 30 30 31 32 32 33 33 33 34 34 34 36 36 37 38 38 38 38 37 37 35 34 33 31 31 30 29 30 29 29 28 27 26 25
36 31 32 25 14 10 12 14 25 36 39 38 39 41 42 42 39 40 37 23 19 32 31 24 32 45 36 23 17 14 15 17 19 20 21 21 22 22 20 19 17 19 20 21 23 23 23 24 24 24 25 26 27 27 28 28 29 30 31 32 33 33 33 34 34 35 35 35 36 36 35 35 33 32 30 29 28 28 28 27 27 26 25 24 24 24
38 36 37 36 33 31 32 34 36 38 39 38 39 41 44 45 44 41 34 32 39 39 33 41 51 48 38 26 16 13 14 15 17 21 24 25 23 21 20 18 16 16 16 17 19 20 21 21 21 22 23 24 26 26 27 28 28 28 29 29 30 30 30 31 31 31 32 32 33 32 32 31 29 28 27 26 26 26 26 25 24 23 23 22 23 24
40 39 40 42 41 40 39 38 33 29 29 32 37 39 42 44 47 44 40 47 50 32 28 49 56 51 50 39 23 17 16 16 17 17 20 23 23 19 15 12 12 12 11 12 13 14 16 18 19 21 22 22 23 24 25 26 26 27 27 27 27 27 27 28 29 29 29 29 28 28 27 26 26 26 25 25 25 24 23 22 21 21 21 22 24 25
43 44 45 44 41 38 35 31 29 24 19 22 29 35 38 42 47 51 52 56 50 36 40 53 49 51 59 51 41 33 24 21 21 17 18 19 19 17 12 10 11 11 10 10 11 11 13 15 16 17 18 20 21 22 22 23 24 24 25 25 25 25 25 25 26 26 26 25 24 24 24 24 24 24 24 23 23 22 21 20 21 21 22 23 25 26
44 43 44 44 41 37 32 27 24 22 17 19 24 30 35 40 44 48 52 55 52 50 55 53 44 49 52 48 50 44 34 32 30 25 24 21 19 18 15 15 15 14 14 14 13 14 15 16 17 17 17 18 18 20 21 21 21 22 22 23 23 22 22 22 22 22 22 23 23 23 23 23 23 22 22 22 21 21 21 21 21 22 24 25 26 27
42 34 35 41 37 30 27 22 16 15 14 15 18 23 31 38 43 47 49 51 53 57 61 54 48 55 55 49 46 37 34 39 39 36 34 29 28 28 24 24 22 20 21 20 18 17 17 19 21 21 20 21 20 20 19 19 20 20 20 21 21 21 21 22 22 22 22 22 22 22 23 22 21 21 21 21 21 22 22 22 23 24 25 27 28 29
39 24 24 35 32 23 21 16 11 9 7 9 17 24 32 38 43 46 47 48 51 56 58 53 53 60 60 56 51 42 37 37 38 39 37 34 37 36 30 30 29 27 26 24 21 19 18 21 23 23 23 22 21 21 21 20 21 21 21 21 22 22 23 23 24 24 24 24 23 23 22 21 21 21 21 22 22 22 23 24 25 26 27 28 29 30
40 27 21 27 27 20 17 14 12 9 5 11 26 34 36 37 37 39 42 45 49 52 52 51 54 57 55 55 57 55 51 46 43 41 35 33 38 38 33 32 32 30 29 27 25 24 23 24 25 24 23 22 23 24 24 24 24 23 23 24 24 24 24 25 26 26 26 26 25 24 23 21 21 21 21 22 22 23 24 25 26 27 28 29 31 32
43 36 24 22 23 18 18 19 15 9 7 22 35 36 34 34 36 39 42 42 43 47 49 50 51 52 52 55 55 53 52 52 50 47 42 38 39 39 35 31 29 30 29 27 27 27 26 27 26 25 25 24 26 27 27 26 26 25 25 25 25 26 26 26 27 28 28 27 26 25 24 22 22 22 21 22 23 24 25 26 27 29 30 32 33 33
48 44 31 25 23 20 23 23 12 8 24 36 36 32 30 31 34 38 40 39 39 42 45 48 50 49 49 50 49 48 48 47 47 49 49 47 46 45 40 32 28 28 26 26 25 24 23 24 25 26 28 28 30 30 29 28 26 25 26 26 26 27 27 28 29 29 29 28 27 27 25 23 23 22 22 23 23 25 26 27 29 30 31 33 34 35
47 47 39 30 24 22 27 26 16 20 37 41 35 34 33 31 30 33 38 41 40 40 43 47 47 43 41 41 41 39 37 36 38 39 38 41 46 48 46 39 31 26 24 23 22 21 21 22 23 25 27 27 28 28 27 26 25 25 26 26 27 28 28 28 29 29 30 29 29 28 27 25 25 24 24 25 25 26 27 28 30 31 32 34 35 36
43 47 44 33 26 25 28 29 26 26 31 38 41 40 38 34 29 27 31 36 34 33 39 43 43 42 40 38 35 31 28 29 33 33 29 30 35 41 45 42 35 28 25 24 24 25 25 25 25 25 25 25 25 25 25 25 25 26 26 27 28 28 29 29 29 29 29 29 29 29 28 27 27 26 27 27 28 28 28 29 30 31 33 35 36 37
43 46 46 36 28 27 26 21 17 14 22 39 46 41 37 35 28 20 23 35 37 32 34 38 39 39 38 35 33 30 29 32 37 34 25 22 26 32 37 36 32 28 28 28 30 31 30 30 29 28 27 27 26 27 27 27 27 28 28 29 29 29 29 29 28 27 27 27 28 28 28 29 29 29 30 30 30 30 30 30 31 31 33 35 37 38
44 43 44 38 30 31 30 20 12 16 30 42 40 33 28 24 19 14 18 32 36 28 28 36 38 34 31 28 27 26 29 37 40 31 20 18 22 25 28 29 29 29 31 33 34 33 33 32 31 30 29 29 29 30 30 30 30 30 30 30 30 30 30 28 27 26 26 26 27 28 29 30 31 32 32 32 32 32 32 32 32 33 34 35 37 38
46 43 41 39 36 36 34 25 21 30 40 39 31 26 20 12 8 11 13 19 18 11 12 23 28 28 27 23 24 28 32 37 34 25 19 21 24 26 28 29 30 30 31 32 33 33 32 32 31 30 30 30 31 32 32 32 31 31 30 31 31 30 29 27 27 27 27 27 28 29 31 32 32 33 33 34 34 35 35 35 35 36 36 36 37 38
44 42 42 43 41 37 34 30 29 37 43 39 31 24 14 9 14 20 21 16 4 7 6 0 6 13 15 15 20 25 27 28 28 25 23 25 26 28 29 30 30 32 32 32 33 34 33 33 33 32 32 32 32 32 31 31 30 29 30 30 29 29 29 29 29 29 29 29 30 30 31 32 33 33 34 35 36 36 37 38 38 38 38 38 38 39
46 43 42 45 43 37 36 32 26 33 44 42 31 21 16 19 27 33 31 20 10 7 4 1 3 6 4 7 13 14 14 16 20 22 25 27 27 27 27 28 29 30 31 32 33 33 33 33 32 31 31 30 30 29 28 28 27 28 28 29 30 30 31 31 32 31 32 32 32 32 32 32 32 33 33 33 33 34 35 37 38 39 39 38 39 39
51 43 41 47 45 36 32 26 17 27 43 41 31 28 30 32 34 34 29 21 21 22 15 11 13 10 6 8 12 11 10 9 8 11 16 21 25 27 27 28 28 28 29 29 29 30 30 30 30 30 30 30 29 29 28 28 28 29 29 30 31 31 32 32 33 33 33 33 33 33 33 33 33 33 33 33 33 33 34 35 37 38 39 39 40 40
51 48 45 50 50 39 33 32 32 38 42 36 32 35 38 39 35 29 25 22 22 21 18 17 17 13 10 10 11 12 12 9 7 7 8 11 16 18 20 22 21 21 23 23 24 25 26 26 27 28 29 30 30 31 31 31 31 31 31 32 32 32 33 33 33 33 33 33 33 32 32 33 33 33 33 33 33 34 35 35 36 37 38 39 40 40
51 53 48 48 51 48 45 47 50 48 40 31 30 30 30 31 30 28 26 24 19 17 17 17 15 12 11 11 11 14 14 12 11 10 8 9 10 10 11 12 12 13 14 15 16 18 18 19 20 21 22 23 24 25 25 26 27 28 29 30 30 30 31 30 30 30 30 29 29 29 28 29 29 29 29 29 29 30 31 32 34 35 37 38 39 40
45 49 47 44 45 49 52 53 52 49 41 32 26 21 18 18 19 19 21 23 22 20 17 14 12 13 13 13 13 14 13 11 10 10 10 10 10 9 10 10 10 11 12 12 13 14 15 17 17 18 19 19 20 21 21 21 22 23 23 24 25 25 26 26 26 25 25 25 25 25 25 26 26 27 27 28 28 29 30 31 32 34 36 38 39 40
42 44 46 46 44 44 50 53 53 52 47 37 27 22 18 15 12 11 13 17 18 17 16 14 13 13 14 14 13 12 12 11 10 9 10 11 11 12 12 11 11 12 13 13 15 15 16 17 17 18 19 19 20 21 21 21 22 22 22 23 23 23 24 24 24 24 24 25 26 26 27 28 29 30 31 31 31 31 31 32 33 34 36 37 38 39
42 41 44 49 50 50 51 51 50 51 50 44 36 29 25 21 17 14 13 13 13 13 14 15 14 13 15 16 15 15 15 14 14 13 13 13 13 14 13 14 14 15 15 16 17 17 18 19 19 20 20 20 21 21 21 22 23 22 23 24 24 24 25 25 26 26 27 28 29 30 32 32 33 33 32 32 31 31 30 31 31 32 33 34 35 36
41 42 44 48 51 54 54 52 48 47 47 47 43 38 34 33 29 25 21 20 19 18 18 18 18 18 19 19 18 18 17 17 17 17 16 15 15 15 16 17 17 18 18 18 18 19 19 20 20 21 21 21 21 22 22 23 24 25 26 26 26 27 28 28 29 30 31 33 34 35 35 35 34 33 32 30 30 29 28 29 29 30 31 32 33 35
43 44 45 45 48 52 54 52 49 45 44 45 45 42 40 39 37 34 31 29 27 26 25 23 22 22 22 22 21 20 19 19 18 18 17 17 17 17 18 19 19 19 19 19 19 20 20 21 22 22 22 22 23 23 24 25 26 27 28 28 29 30 31 31 33 34 34 35 35 35 35 34 33 32 31 30 29 29 28 28 28 29 30 31 33 34
43 43 43 43 45 46 45 44 44 43 42 42 40 38 38 38 36 35 34 33 31 30 29 28 26 24 24 24 22 21 21 21 19 18 18 18 18 19 20 19 19 19 19 18 19 20 20 21 23 23 24 24 25 26 27 28 28 29 30 31 32 33 34 35 36 35 35 33 32 32 33 33 32 32 31 31 30 30 29 29 28 28 29 30 32 33
Wind_Direction
218 220 223 224 226 228 229 232 236 239 242 243 242 240 239 236 229 228 237 243 244 248 244 244 249 244 237 233 231 235 236 234 235 235 236 236 236 237 238 238 238 239 238 234 233 232 229 228 226 224 223 221 220 220 220 220 221 222 223 223 222 221 221 222 223 223 225 225 225 225 226 228 229 231 234 236 239 242 245 249 252 255 257 259 262 264
217 221 224 226 227 230 229 230 234 236 240 241 237 237 242 238 231 229 235 242 247 255 251 246 249 244 238 233 230 233 235 233 233 233 235 239 239 239 239 240 240 242 240 236 236 237 234 232 230 228 227 226 224 223 224 223 222 223 224 224 224 224 224 224 225 225 227 227 227 228 228 229 230 232 234 237 241 245 249 254 258 261 263 265 266 267
216 221 224 224 225 225 225 228 231 236 242 242 236 236 243 241 234 231 239 246 248 258 259 254 254 248 239 235 231 231 233 233 233 234 234 238 241 239 239 241 241 240 238 237 237 237 237 235 234 233 231 230 228 226 226 225 223 223 224 224 225 227 227 226 226 226 228 229 230 230 230 231 233 235 237 241 245 250 254 258 260 262 263 264 264 266
208 215 218 217 217 218 220 224 227 233 239 240 236 233 237 240 235 227 232 241 241 250 256 258 262 253 240 235 232 229 230 232 233 236 236 237 239 239 240 243 243 239 234 233 235 236 238 237 237 237 235 234 232 230 229 227 226 225 224 225 226 228 229 228 227 227 228 229 232 233 234 236 238 240 242 245 250 254 257 258 259 260 261 262 263 266
203 208 211 211 212 215 217 222 225 228 231 234 233 230 233 236 230 224 229 236 238 244 245 254 273 260 243 236 234 230 229 231 232 235 237 236 237 238 241 244 243 240 234 230 231 234 237 238 238 238 237 236 234 233 232 231 230 229 228 227 227 228 229 229 228 228 229 230 233 236 238 240 242 244 247 250 253 255 257 257 258 258 259 261 265 270
203 204 205 209 211 212 216 222 226 229 230 232 232 229 233 237 229 224 236 246 247 250 244 247 272 264 248 240 235 232 230 231 232 234 236 236 237 239 242 244 242 239 237 233 232 235 238 240 241 240 239 236 234 234 234 234 233 232 231 230 230 229 229 230 230 229 230 232 235 238 241 244 246 247 250 252 253 254 254 255 256 257 260 264 269 273
201 201 200 206 212 213 219 225 227 232 232 235 239 236 234 237 231 223 231 246 249 250 241 234 248 268 259 247 238 235 235 233 233 234 236 237 238 241 241 242 241 239 238 237 237 239 242 244 245 245 244 241 238 237 236 235 235 234 234 233 233 233 232 232 232 232 233 235 237 240 243 245 247 248 250 251 251 252 253 254 257 260 263 267 270 272
203 203 201 204 212 216 222 224 226 232 233 237 244 242 237 238 233 224 225 233 245 253 240 226 241 269 265 252 244 240 239 237 236 236 237 239 241 243 242 240 241 240 239 240 241 243 245 245 247 248 248 247 244 242 239 235 235 236 236 236 236 236 236 235 235 236 236 237 239 241 244 246 247 249 250 250 251 252 254 257 259 262 265 267 269 270
208 208 208 209 213 219 223 221 224 232 231 233 240 239 238 237 229 222 224 229 243 269 252 229 232 258 259 253 249 246 245 240 238 238 238 240 243 244 243 241 242 242 242 243 244 243 243 243 245 248 248 247 245 243 239 235 234 234 235 235 236 237 237 237 238 238 239 240 242 243 245 247 248 250 250 251 253 255 257 258 260 263 264 265 267 269
211 212 214 216 218 222 223 220 224 232 228 228 232 228 217 206 213 216 220 228 236 269 255 237 227 241 260 254 249 245 248 245 240 240 240 241 244 245 244 243 244 246 247 246 246 243 241 241 244 247 247 245 243 242 239 237 235 234 234 233 233 235 236 237 238 240 241 241 243 244 246 248 250 251 252 254 256 257 258 260 261 263 264 264 265 266
211 209 210 214 220 225 226 223 223 225 223 219 212 204 196 185 199 208 211 222 239 254 256 248 234 238 267 261 251 244 246 248 246 244 242 240 242 244 244 245 247 249 249 248 247 244 241 242 243 245 246 244 243 242 240 239 238 237 236 235 234 234 235 237 239 240 242 243 244 246 248 249 251 253 254 255 256 258 259 260 262 263 263 263 263 264
208 206 207 211 217 222 224 220 213 212 213 208 196 191 192 186 190 201 208 211 222 247 264 267 243 240 251 255 254 247 245 250 252 248 244 240 239 242 244 245 248 250 249 247 246 245 242 241 242 244 245 244 242 242 242 242 241 240 240 239 238 238 238 239 241 242 244 245 246 247 249 250 251 253 254 255 256 257 258 259 260 261 262 262 262 263
202 206 210 212 215 216 213 207 199 200 205 203 197 188 178 139 171 201 210 212 235 247 267 296 228 237 247 248 248 247 244 248 252 251 248 244 240 239 241 244 247 249 249 249 247 246 244 242 243 244 244 244 242 242 242 243 243 242 242 242 242 242 242 243 244 245 246 247 248 249 250 251 252 253 254 255 256 257 258 259 260 260 261 261 262 263
183 201 210 211 213 211 208 202 194 192 196 201 202 193 181 148 114 211 196 246 255 243 239 237 218 241 251 253 251 248 248 249 250 252 250 247 243 240 240 243 246 249 251 252 251 249 246 244 244 245 245 244 243 242 241 242 243 243 244 244 244 244 245 245 246 247 248 249 250 251 251 252 253 254 255 256 256 257 258 259 259 259 260 260 262 262
175 193 210 209 211 210 208 209 211 210 206 208 212 207 200 191 181 196 192 206 244 233 221 214 221 245 247 252 254 252 253 251 249 251 251 249 246 241 241 243 246 250 251 252 253 250 247 244 243 245 245 245 243 242 242 242 242 243 244 245 245 245 245 246 247 247 249 250 250 251 252 253 254 255 256 256 257 257 258 259 258 258 259 260 262 263
190 201 212 210 212 215 211 209 215 216 207 205 207 207 207 204 199 178 186 212 229 250 215 205 220 241 241 240 246 250 256 254 252 253 253 251 250 246 243 242 243 248 251 252 253 251 248 245 244 244 245 245 244 243 243 244 244 244 245 246 246 247 247 247 247 248 248 249 250 251 252 253 254 255 255 256 257 257 258 258 257 258 259 260 262 264
192 200 209 207 208 212 215 213 214 213 204 197 198 203 208 207 205 194 186 211 214 244 237 223 234 246 251 254 251 241 247 254 253 255 257 257 254 250 246 242 242 245 249 253 254 252 250 248 247 247 245 244 245 244 244 245 245 246 246 247 247 248 248 249 249 249 250 250 251 252 252 253 254 255 255 256 256 256 256 256 257 257 259 261 263 264
192 186 191 200 204 208 209 212 218 221 214 202 203 208 207 202 208 211 203 183 180 244 247 229 238 248 251 256 256 247 244 247 248 253 263 263 255 252 251 247 245 246 248 253 253 252 251 250 250 250 247 244 244 245 245 245 245 246 246 247 248 249 250 250 251 251 252 252 253 253 254 255 255 256 256 256 255 255 255 256 257 258 260 262 263 264
198 183 179 189 199 204 200 194 201 210 214 214 218 216 203 194 206 205 197 178 196 227 279 234 239 246 242 242 250 254 250 254 255 252 254 254 250 255 257 250 247 246 247 249 250 250 251 250 250 251 249 245 242 244 245 246 246 247 248 249 249 251 251 252 253 253 254 255 255 256 256 257 257 257 257 256 256 256 256 257 258 260 261 263 263 263
202 186 171 182 188 188 187 191 195 196 199 205 218 216 204 202 206 201 200 203 188 199 256 253 248 248 247 248 249 251 253 258 252 246 252 254 248 248 249 244 244 245 245 245 245 248 250 250 250 250 249 246 243 244 246 247 248 249 249 250 250 252 253 253 255 255 256 257 257 258 258 258 258 258 258 257 257 257 257 258 260 261 262 263 262 260
203 197 180 172 178 182 190 199 201 199 196 195 200 203 203 204 202 204 212 216 206 162 205 226 270 253 252 257 258 255 254 251 245 246 250 247 241 241 240 241 244 247 249 245 243 245 246 246 248 248 248 247 245 246 246 247 249 249 250 251 251 252 252 253 254 254 255 255 256 256 256 257 257 257 257 257 257 257 257 258 260 261 262 261 259 257
202 202 187 171 177 191 201 207 205 206 209 207 204 203 203 201 195 194 216 221 219 220 219 189 277 260 250 246 270 272 263 254 249 245 240 237 242 245 243 245 247 250 253 251 247 246 245 245 245 246 247 246 245 246 247 248 249 251 251 251 251 251 251 251 251 252 253 253 254 254 254 255 255 256 256 256 256 256 257 258 259 259 259 258 256 252
198 196 183 174 183 193 204 211 207 208 214 214 214 214 209 204 201 199 203 216 215 223 240 244 279 266 257 246 255 272 262 252 244 236 233 234 241 244 245 250 253 253 255 254 252 251 249 248 246 246 247 247 247 249 250 251 252 252 252 251 252 252 252 252 252 252 253 253 253 254 254 255 255 256 256 255 255 256 257 258 258 257 257 254 250 246
197 192 173 163 175 186 196 213 211 209 211 211 215 215 208 207 209 208 209 216 210 218 231 234 257 262 260 255 247 241 237 240 242 243 238 235 243 251 254 257 257 256 258 259 258 256 256 255 253 252 253 253 254 255 255 255 254 254 255 255 255 256 255 255 254 254 254 254 254 254 254 255 256 256 256 255 256 256 257 257 256 255 252 248 244 241
192 186 169 150 140 176 193 204 207 209 211 213 214 211 208 211 211 210 216 225 229 227 223 216 246 252 254 259 255 241 224 227 247 261 254 254 269 279 278 269 262 263 263 262 261 260 259 259 258 257 257 256 257 257 256 256 256 256 257 257 257 258 258 257 257 256 256 256 255 255 255 255 255 256 256 256 256 256 254 253 251 249 245 241 238 235
194 189 181 169 157 178 195 201 206 207 206 211 216 213 212 212 208 211 217 219 233 236 224 215 236 245 247 252 257 245 230 240 257 266 267 272 281 285 287 282 271 265 264 259 257 258 257 258 259 258 257 257 256 256 255 256 256 256 257 257 257 258 258 259 259 258 257 256 255 254 254 254 255 256 256 255 253 251 248 246 244 241 238 235 233 230
200 197 200 201 202 207 211 212 214 209 204 209 215 214 214 213 210 210 210 214 227 232 226 226 234 242 244 240 236 234 236 248 256 257 261 269 278 283 282 279 271 261 257 254 253 254 255 255 255 255 254 255 255 256 256 256 257 258 258 258 258 258 259 259 258 257 256 254 253 253 253 254 254 253 251 248 246 244 241 238 236 235 233 231 230 229
201 203 210 215 217 220 218 216 218 217 218 222 220 216 214 213 213 211 211 221 226 222 230 236 235 239 243 238 227 226 231 233 231 234 246 256 265 270 262 254 254 249 247 251 254 256 256 253 251 250 251 253 254 256 257 257 257 258 258 259 259 258 258 258 257 256 254 253 252 252 252 251 249 247 244 242 239 236 235 233 232 233 232 231 230 231
206 210 214 214 214 217 217 220 225 224 227 232 228 225 221 215 213 214 218 225 225 220 235 242 239 241 244 242 237 231 220 214 219 232 247 247 243 246 246 245 248 248 255 262 260 259 261 258 255 252 251 253 255 256 258 259 260 261 261 261 260 259 257 256 256 255 253 252 250 248 247 245 243 241 238 236 234 232 233 233 234 234 234 233 234 235
208 212 213 210 208 210 214 221 228 225 223 225 227 231 229 223 221 222 226 229 226 228 238 242 244 247 246 246 245 239 226 221 225 236 250 250 237 238 255 265 264 266 272 274 271 268 268 266 263 260 258 258 258 257 258 259 261 263 264 265 264 261 259 257 255 253 251 249 247 244 242 241 239 237 235 233 233 233 235 236 236 237 237 237 238 239
205 210 209 206 202 204 211 216 220 222 227 229 229 231 231 230 229 229 233 232 227 232 239 240 244 250 248 245 244 238 230 231 233 238 246 249 243 246 259 266 268 274 276 278 281 276 271 266 263 263 264 264 265 264 265 266 265 265 266 268 268 265 263 260 256 253 250 247 246 244 242 240 237 235 234 234 235 237 238 239 239 240 240 241 242 244
202 205 204 201 197 196 203 205 202 202 215 240 242 237 231 228 228 229 233 232 229 234 238 237 242 250 251 248 244 239 234 233 234 238 241 240 240 247 259 264 266 271 272 274 276 273 268 263 260 261 262 265 268 270 272 273 271 269 267 265 264 262 261 258 255 252 250 248 247 246 244 241 238 237 236 237 239 241 242 243 243 244 245 246 248 249
202 204 201 196 193 192 191 188 188 178 175 239 239 236 231 229 231 233 235 235 235 235 235 235 243 251 255 253 250 247 244 240 238 238 237 236 240 247 258 264 266 268 268 268 267 264 262 258 255 256 258 263 268 270 272 273 272 270 266 263 263 261 259 256 253 251 250 248 247 245 243 240 239 237 238 240 243 246 247 248 249 249 250 251 252 252
203 206 204 196 193 189 185 188 186 172 211 240 238 235 235 235 235 237 238 239 238 237 238 243 249 254 255 255 256 256 255 253 251 248 245 243 243 247 256 265 268 268 267 267 265 263 262 258 256 256 257 260 264 267 270 271 270 269 267 265 265 264 262 259 256 253 250 248 245 244 241 239 239 240 242 245 248 251 252 253 253 254 254 254 255 256
202 203 202 200 193 183 180 180 169 199 231 239 243 241 238 239 242 246 250 251 246 243 246 251 253 253 255 257 260 263 264 265 264 261 256 252 248 249 255 261 265 268 269 267 264 263 263 261 258 256 256 257 260 265 268 269 269 269 267 267 266 264 264 262 260 257 253 250 247 244 241 240 241 243 246 249 252 254 255 256 257 257 258 259 259 259
204 203 202 197 188 177 172 171 183 227 233 237 244 244 239 238 240 243 248 252 251 248 250 252 254 256 258 259 260 263 265 267 267 265 260 256 250 248 250 254 258 264 265 263 263 262 261 260 258 257 257 258 261 265 267 269 270 270 269 268 266 265 265 263 262 261 258 254 251 247 244 242 242 244 248 251 253 255 257 259 260 261 262 262 262 263
208 206 202 191 184 185 180 184 207 232 242 242 242 242 241 238 235 237 248 258 260 255 253 255 257 257 256 257 259 260 261 263 262 258 255 256 251 244 245 251 256 257 256 257 260 261 260 260 260 260 262 263 265 267 268 269 271 271 271 270 268 266 265 264 264 263 260 258 254 251 248 246 244 245 248 250 253 256 258 261 262 263 264 265 265 265
209 211 207 195 189 193 189 193 212 234 249 245 241 242 246 247 248 252 264 268 266 261 259 259 257 257 257 258 258 256 256 257 257 253 249 251 249 243 243 250 253 251 251 254 257 259 260 263 264 266 267 267 268 268 269 269 270 270 271 270 268 267 265 264 265 264 262 260 257 253 250 248 247 247 249 251 254 256 259 261 262 264 265 265 266 266
209 213 212 204 198 196 193 194 203 220 236 243 246 248 249 251 250 242 253 266 270 271 265 256 252 253 253 253 253 251 249 249 252 255 252 242 241 242 243 246 248 247 249 251 255 259 263 267 269 269 268 267 266 266 267 267 267 268 267 266 265 265 264 263 263 263 262 260 256 253 251 249 249 249 250 252 255 257 259 260 262 263 263 264 265 265
208 209 207 205 206 204 200 202 215 228 238 246 252 252 249 245 220 194 218 259 282 312 281 253 248 248 248 250 250 246 246 250 256 265 263 249 246 248 248 249 249 250 251 253 257 261 264 266 267 267 266 264 264 264 264 265 265 264 263 262 262 262 261 259 258 258 258 257 255 255 254 254 254 254 254 255 256 257 258 259 260 261 262 263 264 265
204 205 205 207 211 209 204 207 221 234 241 243 246 250 243 198 181 195 214 233 267 37 40 156 231 241 243 248 251 251 254 259 263 264 259 253 252 253 253 254 254 254 256 258 259 260 261 261 262 263 263 263 263 263 263 263 263 262 261 261 260 259 257 256 256 256 257 257 256 257 257 258 258 259 259 260 260 260 260 260 260 260 261 262 263 264
199 201 203 207 210 211 211 212 227 244 244 241 238 233 211 191 202 222 233 238 249 278 305 357 245 249 255 261 261 264 267 263 259 255 249 247 248 248 249 251 250 251 253 254 254 255 256 257 259 260 260 260 261 261 261 261 261 260 260 259 259 258 257 257 257 258 259 259 259 259 260 260 260 261 261 262 262 263 262 261 260 260 261 261 262 263
198 196 199 206 207 207 209 209 222 244 243 236 224 214 213 216 227 242 251 254 261 267 268 262 262 275 295 277 264 264 261 256 255 249 242 241 243 245 246 248 248 249 250 250 252 254 255 256 257 257 257 258 258 260 260 260 259 259 259 259 258 259 259 259 259 260 261 262 262 263 263 263 263 264 265 265 266 265 264 263 262 261 261 262 262 263
201 199 201 206 207 202 202 207 217 231 238 237 229 228 233 237 242 251 257 258 261 264 263 263 271 281 277 257 251 254 257 260 265 255 237 232 234 236 241 244 245 247 247 248 250 252 253 255 255 256 257 258 259 260 260 260 260 259 259 259 259 260 260 260 261 262 263 264 265 265 265 265 266 266 267 267 267 267 266 265 265 264 263 263 262 262
207 207 206 208 209 209 212 217 222 228 236 240 239 240 246 248 249 254 258 257 256 259 264 270 274 269 254 239 243 255 260 262 258 245 225 216 215 214 220 227 230 234 237 240 244 247 250 252 254 256 257 258 259 260 260 260 260 259 259 259 260 260 261 261 262 263 263 264 264 264 265 265 266 266 267 267 268 268 268 268 267 267 266 265 264 263
215 214 214 215 215 216 221 224 225 228 233 238 241 241 238 237 240 246 251 252 252 257 266 268 258 250 247 245 248 253 250 242 232 221 213 215 215 216 221 225 229 235 240 245 249 252 254 255 257 259 260 260 262 262 262 262 262 261 261 260 260 260 260 260 260 260 260 260 261 262 263 264 266 268 269 270 271 271 271 270 269 268 267 266 265 263
218 218 219 220 220 221 226 228 228 229 232 236 239 239 231 224 225 229 235 240 244 250 257 254 244 244 251 253 249 239 229 228 230 228 228 228 228 232 237 239 243 248 252 257 259 260 261 260 260 260 260 261 263 263 264 265 264 264 263 261 260 260 259 258 258 258 259 261 263 265 267 269 271 273 274 275 274 273 272 271 269 268 267 266 265 264
219 219 218 221 222 225 231 234 232 231 233 236 237 239 238 237 241 243 237 229 228 234 243 244 244 248 252 252 246 235 232 241 250 249 246 242 241 244 248 253 259 264 266 267 266 266 265 263 261 259 259 259 260 261 262 263 262 262 261 260 260 260 260 261 262 263 266 269 271 273 275 276 277 278 278 277 276 274 273 271 270 270 269 268 266 264
222 220 220 221 223 227 231 234 233 232 233 236 238 240 243 247 252 253 246 236 233 239 245 247 251 254 252 246 242 243 247 252 253 252 251 251 252 257 263 267 271 273 271 269 268 266 263 262 260 260 259 259 260 260 260 260 260 260 260 260 261 263 264 266 269 272 276 278 279 280 280 280 280 279 278 277 276 276 275 274 274 273 272 270 268 266
222 222 221 220 221 226 231 234 234 234 236 239 242 244 247 251 254 255 252 247 247 249 252 252 254 257 254 245 242 248 254 252 250 249 251 256 263 269 271 272 272 271 269 267 264 261 260 259 258 258 259 259 260 261 261 261 260 260 261 263 264 267 270 272 275 280 283 283 283 282 280 279 278 278 278 278 279 279 279 278 278 276 275 273 271 269
226 227 227 226 228 234 239 240 240 242 244 247 249 250 251 253 256 258 256 254 253 254 256 257 256 254 251 246 246 250 252 249 248 251 255 262 268 271 272 272 271 270 267 263 259 256 254 254 254 254 254 255 256 258 259 261 262 263 265 267 269 271 274 276 280 284 286 285 284 282 279 277 277 277 277 278 279 280 281 280 280 278 277 275 273 271
Height
3125 3128 3127 3127 3130 3136 3141 3145 3146 3148 3149 3150 3151 3152 3153 3154 3156 3159 3162 3163 3163 3162 3162 3163 3164 3165 3166 3169 3171 3171 3170 3171 3172 3173 3174 3175 3176 3177 3178 3179 3180 3182 3184 3186 3186 3187 3188 3189 3190 3190 3191 3192 3193 3194 3195 3196 3197 3198 3199 3200 3201 3202 3202 3203 3204 3205 3206 3207 3207 3208 3208 3209 3209 3209 3210 3210 3210 3210 3211 3211 3211 3211 3212 3212 3212 3212
3123 3123 3123 3126 3132 3138 3142 3143 3144 3145 3146 3147 3149 3151 3152 3152 3153 3158 3161 3162 3163 3161 3160 3162 3161 3161 3163 3166 3168 3167 3167 3168 3170 3171 3172 3173 3174 3174 3175 3177 3178 3179 3181 3183 3183 3184 3185 3186 3187 3188 3189 3190 3191 3192 3193 3194 3195 3196 3197 3199 3200 3200 3200 3201 3202 3203 3204 3205 3206 3206 3206 3206 3206 3207 3207 3208 3208 3208 3209 3209 3210 3210 3210 3210 3210 3210
3119 3118 3121 3127 3133 3137 3140 3140 3141 3144 3144 3145 3147 3149 3151 3152 3153 3158 3160 3161 3161 3159 3159 3160 3159 3158 3160 3162 3163 3164 3164 3166 3167 3168 3169 3170 3171 3172 3173 3174 3175 3176 3178 3180 3180 3181 3182 3183 3184 3185 3187 3188 3189 3190 3191 3192 3193 3194 3195 3196 3197 3198 3199 3199 3200 3201 3202 3203 3203 3203 3203 3203 3204 3204 3205 3205 3206 3206 3207 3208 3208 3208 3208 3208 3207 3207
3114 3116 3120 3127 3132 3134 3136 3138 3139 3141 3142 3142 3144 3147 3149 3151 3154 3157 3159 3159 3159 3158 3157 3158 3156 3154 3156 3157 3157 3160 3161 3163 3164 3165 3166 3167 3168 3169 3170 3171 3172 3173 3175 3177 3178 3179 3179 3180 3181 3183 3184 3185 3187 3187 3188 3189 3190 3191 3193 3194 3195 3196 3197 3197 3198 3198 3199 3200 3200 3200 3201 3201 3201 3202 3202 3203 3204 3204 3205 3205 3205 3205 3205 3205 3205 3205
3112 3115 3120 3126 3129 3131 3133 3135 3136 3138 3139 3140 3142 3145 3147 3151 3154 3156 3157 3157 3156 3156 3156 3157 3154 3148 3150 3152 3152 3157 3158 3158 3160 3162 3162 3164 3165 3167 3167 3168 3170 3171 3173 3174 3175 3176 3176 3177 3178 3180 3181 3183 3184 3184 3185 3187 3188 3190 3191 3192 3193 3194 3195 3195 3196 3196 3196 3196 3197 3197 3198 3198 3199 3200 3201 3201 3202 3203 3203 3203 3203 3202 3202 3202 3202 3203
3113 3116 3119 3123 3126 3128 3130 3131 3133 3135 3137 3138 3140 3143 3147 3151 3153 3155 3156 3154 3154 3154 3154 3159 3154 3143 3145 3148 3149 3153 3155 3155 3157 3158 3159 3162 3163 3164 3164 3166 3168 3169 3170 3171 3173 3173 3174 3175 3176 3177 3178 3179 3180 3181 3183 3185 3186 3187 3188 3189 3190 3191 3192 3193 3193 3193 3193 3194 3194 3195 3196 3196 3197 3198 3199 3199 3200 3200 3200 3200 3199 3199 3199 3200 3200 3200
3111 3114 3118 3121 3123 3125 3127 3128 3131 3134 3136 3137 3138 3142 3147 3149 3151 3153 3153 3153 3152 3152 3152 3156 3153 3143 3141 3142 3145 3149 3150 3152 3154 3154 3156 3159 3160 3161 3162 3164 3165 3166 3168 3169 3170 3171 3172 3173 3174 3175 3176 3177 3178 3179 3181 3182 3183 3184 3185 3186 3187 3188 3189 3190 3191 3191 3191 3191 3192 3192 3193 3194 3195 3195 3196 3197 3197 3196 3196 3196 3196 3196 3197 3197 3197 3197
3107 3111 3115 3118 3121 3123 3124 3125 3129 3132 3135 3135 3136 3141 3144 3146 3148 3149 3151 3151 3150 3150 3149 3150 3150 3146 3138 3134 3140 3145 3146 3147 3149 3151 3153 3156 3157 3159 3160 3161 3163 3164 3166 3167 3168 3169 3170 3170 3171 3172 3173 3175 3176 3177 3178 3179 3180 3180 3182 3183 3184 3185 3186 3187 3187 3188 3188 3188 3189 3190 3191 3191 3192 3193 3194 3194 3193 3193 3193 3194 3194 3194 3194 3194 3194 3194
3104 3108 3112 3115 3117 3118 3120 3124 3128 3131 3133 3134 3136 3139 3141 3143 3145 3146 3149 3149 3150 3150 3145 3143 3148 3144 3132 3128 3136 3140 3141 3142 3144 3147 3151 3153 3155 3156 3157 3159 3160 3162 3163 3164 3165 3166 3167 3168 3169 3170 3171 3172 3173 3174 3175 3175 3176 3177 3178 3179 3180 3181 3182 3183 3184 3184 3185 3186 3186 3187 3187 3188 3189 3190 3190 3190 3190 3190 3191 3191 3191 3191 3192 3192 3192 3191
3103 3107 3112 3114 3115 3115 3117 3123 3128 3130 3131 3132 3136 3139 3140 3143 3143 3145 3147 3148 3151 3148 3138 3138 3145 3141 3128 3125 3133 3135 3134 3137 3141 3145 3148 3150 3152 3153 3154 3156 3157 3159 3160 3161 3163 3164 3165 3166 3166 3167 3167 3169 3170 3170 3172 3172 3173 3174 3174 3175 3176 3178 3179 3180 3180 3181 3182 3183 3183 3184 3184 3185 3186 3186 3187 3187 3187 3187 3188 3188 3188 3189 3189 3189 3189 3188
3102 3106 3110 3111 3112 3113 3117 3123 3126 3129 3130 3132 3135 3137 3140 3142 3142 3145 3146 3148 3151 3143 3133 3136 3143 3143 3131 3121 3126 3130 3129 3133 3139 3142 3144 3147 3149 3150 3152 3153 3154 3156 3157 3158 3159 3160 3162 3163 3163 3164 3164 3166 3166 3167 3168 3169 3170 3171 3172 3173 3173 3174 3175 3176 3177 3178 3179 3179 3179 3180 3181 3182 3183 3183 3183 3184 3184 3184 3185 3185 3185 3186 3186 3186 3186 3185
3100 3103 3105 3105 3108 3111 3116 3121 3123 3126 3128 3131 3133 3135 3139 3142 3143 3145 3146 3148 3147 3137 3134 3137 3141 3145 3132 3117 3121 3127 3127 3131 3135 3137 3141 3143 3145 3147 3149 3150 3151 3152 3153 3155 3156 3157 3158 3159 3159 3160 3161 3162 3163 3163 3165 3166 3167 3168 3169 3170 3171 3172 3172 3173 3174 3175 3175 3176 3176 3177 3178 3179 3179 3180 3180 3180 3181 3181 3181 3182 3182 3182 3183 3183 3182 3182
3097 3099 3100 3103 3105 3108 3112 3116 3120 3123 3125 3128 3130 3133 3138 3142 3145 3145 3144 3145 3141 3135 3136 3137 3140 3139 3122 3112 3119 3123 3124 3129 3131 3134 3137 3139 3142 3144 3146 3147 3147 3148 3150 3151 3153 3153 3155 3155 3156 3157 3157 3159 3159 3160 3161 3162 3164 3165 3166 3167 3168 3169 3170 3170 3171 3172 3172 3172 3173 3174 3174 3175 3176 3176 3176 3177 3177 3178 3178 3178 3178 3179 3180 3179 3179 3178
3095 3098 3098 3099 3101 3104 3107 3110 3113 3116 3120 3124 3126 3130 3134 3139 3143 3143 3142 3142 3136 3132 3134 3137 3140 3130 3114 3112 3117 3118 3122 3126 3127 3131 3133 3135 3138 3140 3142 3143 3144 3145 3147 3148 3149 3150 3151 3152 3153 3153 3154 3155 3155 3157 3158 3158 3160 3161 3162 3163 3164 3166 3166 3167 3168 3168 3169 3169 3170 3170 3171 3171 3172 3172 3173 3173 3173 3174 3174 3174 3175 3175 3176 3176 3175 3175
3090 3092 3092 3093 3096 3100 3104 3107 3110 3113 3117 3120 3122 3125 3126 3128 3131 3133 3134 3133 3130 3129 3132 3136 3135 3121 3111 3112 3113 3114 3120 3122 3123 3127 3129 3131 3134 3136 3138 3140 3141 3142 3144 3145 3146 3147 3148 3148 3149 3149 3150 3151 3152 3153 3154 3155 3156 3157 3159 3160 3161 3162 3163 3163 3164 3164 3165 3166 3166 3167 3167 3167 3168 3168 3169 3169 3169 3169 3170 3170 3171 3171 3172 3172 3171 3171
3084 3086 3087 3091 3095 3098 3102 3106 3109 3112 3115 3117 3120 3123 3122 3122 3124 3126 3128 3127 3127 3130 3129 3129 3122 3110 3108 3111 3111 3114 3117 3117 3120 3122 3124 3127 3130 3133 3134 3136 3138 3139 3140 3141 3142 3143 3144 3144 3145 3145 3146 3147 3148 3149 3150 3151 3152 3154 3155 3156 3157 3158 3159 3159 3160 3161 3161 3162 3163 3163 3163 3164 3164 3164 3164 3164 3165 3165 3166 3166 3167 3167 3168 3168 3168 3168
3080 3084 3086 3089 3093 3097 3101 3104 3106 3108 3112 3115 3117 3117 3118 3121 3124 3125 3126 3125 3129 3128 3122 3119 3113 3107 3109 3109 3108 3113 3114 3115 3118 3118 3120 3123 3125 3128 3130 3132 3135 3136 3137 3138 3138 3139 3140 3140 3141 3142 3142 3143 3144 3145 3146 3147 3148 3150 3151 3152 3153 3154 3154 3155 3156 3157 3158 3158 3159 3159 3159 3160 3160 3160 3160 3160 3161 3161 3162 3162 3162 3163 3164 3164 3164 3164
3074 3081 3084 3087 3090 3095 3099 3103 3105 3107 3109 3110 3111 3112 3116 3122 3124 3124 3125 3125 3127 3125 3117 3112 3109 3108 3111 3106 3104 3109 3111 3113 3115 3116 3119 3120 3121 3124 3126 3129 3131 3132 3134 3134 3134 3135 3135 3136 3137 3137 3138 3139 3140 3141 3142 3143 3144 3145 3146 3147 3148 3149 3150 3151 3151 3152 3153 3154 3154 3155 3155 3155 3155 3155 3156 3156 3157 3157 3157 3158 3158 3159 3160 3160 3161 3161
3071 3078 3084 3086 3089 3093 3097 3099 3101 3103 3105 3105 3106 3109 3114 3118 3118 3119 3121 3120 3122 3121 3114 3109 3107 3106 3105 3102 3102 3107 3109 3111 3113 3114 3116 3118 3119 3121 3122 3125 3127 3128 3129 3129 3130 3131 3131 3132 3133 3133 3134 3135 3136 3137 3138 3139 3140 3141 3142 3143 3144 3145 3145 3146 3147 3148 3149 3149 3150 3150 3150 3150 3150 3150 3150 3151 3152 3152 3153 3153 3154 3155 3156 3156 3157 3157
3068 3075 3081 3084 3087 3091 3093 3094 3094 3095 3099 3103 3106 3109 3110 3112 3113 3114 3115 3114 3115 3116 3112 3108 3105 3099 3096 3098 3102 3105 3108 3110 3111 3112 3114 3116 3117 3118 3119 3121 3122 3123 3124 3125 3126 3126 3127 3128 3129 3129 3131 3131 3132 3133 3134 3135 3136 3137 3138 3138 3140 3141 3141 3142 3143 3143 3144 3145 3145 3145 3145 3145 3145 3145 3145 3146 3147 3148 3149 3149 3150 3151 3151 3152 3152 3152
3067 3071 3077 3082 3086 3088 3087 3086 3086 3088 3092 3096 3099 3103 3106 3109 3111 3112 3112 3111 3111 3112 3111 3109 3102 3092 3092 3098 3100 3102 3106 3108 3110 3111 3113 3114 3115 3115 3117 3118 3119 3120 3120 3120 3121 3122 3123 3124 3125 3126 3127 3127 3129 3130 3130 3131 3132 3133 3134 3135 3136 3137 3137 3138 3138 3139 3140 3140 3140 3140 3140 3140 3140 3140 3141 3141 3142 3143 3144 3145 3146 3146 3147 3147 3147 3148
3064 3068 3072 3077 3080 3081 3081 3083 3086 3089 3090 3090 3092 3096 3098 3102 3106 3108 3109 3107 3108 3108 3107 3107 3098 3086 3090 3098 3098 3101 3105 3105 3108 3109 3110 3113 3113 3113 3114 3115 3116 3116 3116 3117 3117 3118 3119 3120 3121 3122 3123 3124 3125 3126 3127 3127 3128 3129 3130 3131 3132 3132 3133 3134 3134 3135 3135 3136 3136 3136 3136 3136 3136 3136 3136 3137 3138 3139 3140 3141 3142 3142 3142 3142 3143 3144
3062 3066 3071 3075 3077 3079 3082 3085 3087 3089 3091 3092 3093 3093 3095 3099 3100 3101 3102 3101 3105 3106 3104 3107 3098 3082 3085 3096 3098 3100 3103 3103 3105 3106 3107 3109 3110 3111 3112 3112 3112 3112 3112 3113 3114 3115 3115 3116 3117 3118 3119 3121 3121 3122 3123 3124 3125 3126 3127 3128 3128 3129 3130 3130 3130 3131 3131 3131 3131 3131 3132 3132 3132 3132 3133 3133 3134 3135 3136 3137 3137 3138 3138 3138 3139 3140
3060 3065 3069 3075 3079 3082 3083 3085 3086 3089 3090 3090 3089 3089 3092 3095 3095 3098 3100 3100 3103 3102 3100 3106 3098 3080 3082 3094 3097 3099 3101 3101 3103 3105 3105 3107 3107 3108 3108 3108 3108 3109 3109 3110 3110 3111 3112 3113 3114 3115 3116 3117 3118 3119 3120 3120 3122 3122 3123 3124 3124 3125 3126 3126 3126 3127 3127 3127 3127 3127 3128 3128 3128 3129 3129 3130 3131 3131 3132 3133 3133 3133 3134 3134 3135 3137
3056 3061 3065 3072 3080 3083 3084 3084 3084 3084 3083 3081 3082 3087 3090 3091 3095 3099 3099 3100 3101 3097 3098 3103 3093 3078 3081 3090 3093 3097 3099 3098 3101 3103 3103 3105 3105 3105 3105 3104 3105 3105 3106 3107 3107 3108 3109 3110 3111 3112 3112 3113 3114 3115 3116 3116 3117 3118 3119 3119 3120 3120 3121 3121 3122 3122 3122 3123 3123 3123 3124 3124 3124 3125 3126 3127 3127 3128 3128 3128 3129 3130 3130 3131 3132 3134
3053 3056 3058 3063 3070 3073 3073 3071 3068 3068 3072 3076 3080 3083 3085 3088 3092 3093 3096 3100 3097 3090 3093 3094 3082 3074 3080 3087 3089 3094 3096 3096 3098 3100 3100 3102 3102 3102 3102 3102 3102 3102 3103 3104 3104 3105 3106 3107 3108 3108 3109 3109 3110 3111 3111 3112 3113 3114 3114 3115 3115 3116 3116 3116 3117 3117 3118 3118 3118 3119 3119 3120 3121 3121 3122 3123 3123 3124 3124 3125 3125 3126 3127 3129 3130 3132
3052 3054 3054 3055 3056 3057 3057 3056 3057 3061 3067 3071 3073 3076 3080 3084 3087 3090 3095 3093 3085 3082 3085 3081 3074 3074 3078 3082 3087 3090 3093 3095 3097 3098 3098 3099 3099 3100 3100 3099 3099 3100 3101 3101 3102 3102 3103 3104 3104 3104 3105 3105 3106 3107 3107 3108 3109 3109 3110 3110 3111 3111 3112 3112 3112 3113 3113 3114 3114 3115 3115 3116 3117 3118 3118 3119 3119 3120 3121 3122 3123 3124 3125 3126 3127 3129
3048 3049 3050 3051 3052 3053 3054 3056 3058 3062 3065 3066 3068 3072 3076 3080 3084 3087 3086 3078 3076 3081 3078 3071 3073 3074 3071 3077 3085 3087 3090 3093 3093 3095 3096 3096 3096 3097 3097 3097 3098 3098 3099 3099 3100 3100 3100 3101 3101 3101 3101 3102 3102 3103 3104 3104 3105 3105 3106 3106 3106 3107 3107 3108 3108 3109 3110 3110 3111 3112 3112 3113 3114 3114 3115 3115 3116 3117 3118 3119 3120 3121 3122 3123 3125 3126
3041 3041 3043 3047 3051 3053 3055 3057 3059 3062 3064 3066 3068 3069 3071 3075 3077 3078 3074 3070 3074 3077 3069 3066 3072 3070 3066 3073 3079 3082 3087 3088 3088 3090 3092 3093 3094 3094 3094 3095 3095 3096 3097 3097 3098 3098 3098 3098 3098 3099 3099 3099 3100 3100 3100 3101 3101 3101 3102 3102 3103 3103 3103 3104 3105 3105 3106 3107 3108 3109 3109 3110 3111 3111 3112 3113 3114 3115 3116 3117 3118 3118 3120 3121 3122 3124
3038 3038 3040 3044 3048 3051 3054 3057 3058 3060 3062 3064 3066 3067 3068 3069 3070 3069 3066 3067 3073 3073 3067 3068 3070 3066 3066 3070 3071 3076 3083 3083 3083 3085 3087 3090 3091 3091 3091 3092 3092 3093 3094 3094 3095 3095 3096 3096 3096 3096 3097 3097 3097 3097 3097 3097 3097 3098 3098 3099 3099 3100 3100 3101 3102 3103 3104 3104 3105 3106 3107 3107 3108 3109 3110 3111 3112 3113 3113 3114 3115 3116 3117 3118 3120 3121
3037 3038 3041 3044 3048 3051 3053 3055 3057 3060 3061 3063 3065 3066 3066 3065 3064 3064 3063 3067 3072 3068 3062 3068 3069 3061 3060 3066 3068 3072 3077 3078 3081 3083 3084 3088 3089 3088 3089 3089 3089 3090 3091 3091 3092 3093 3093 3094 3093 3094 3094 3094 3094 3094 3095 3095 3095 3095 3095 3096 3096 3097 3098 3098 3099 3100 3101 3102 3103 3103 3104 3105 3106 3107 3108 3109 3109 3110 3111 3112 3113 3114 3115 3116 3118 3119
3036 3039 3040 3044 3048 3050 3052 3055 3058 3059 3062 3064 3063 3060 3058 3058 3058 3058 3059 3061 3063 3058 3059 3068 3064 3051 3050 3059 3065 3068 3072 3074 3077 3079 3082 3085 3085 3085 3086 3086 3087 3087 3088 3088 3089 3090 3091 3091 3091 3091 3091 3091 3092 3092 3092 3092 3092 3093 3093 3093 3094 3094 3095 3096 3096 3097 3098 3099 3100 3100 3101 3102 3103 3104 3105 3106 3107 3108 3109 3110 3111 3112 3113 3114 3115 3116
3037 3038 3040 3043 3047 3049 3053 3055 3057 3060 3063 3061 3053 3049 3050 3053 3054 3055 3054 3053 3053 3054 3057 3058 3049 3042 3048 3056 3059 3062 3067 3069 3071 3075 3078 3080 3081 3082 3082 3083 3083 3084 3085 3086 3086 3087 3087 3087 3088 3088 3088 3089 3089 3089 3089 3089 3089 3090 3090 3090 3090 3091 3092 3092 3093 3094 3095 3096 3097 3097 3098 3099 3100 3101 3102 3103 3104 3105 3106 3107 3108 3109 3110 3111 3112 3112
3034 3036 3039 3042 3045 3048 3052 3054 3057 3062 3060 3049 3041 3042 3048 3050 3050 3048 3046 3046 3049 3052 3051 3047 3044 3046 3050 3051 3052 3057 3061 3064 3067 3071 3075 3076 3077 3077 3078 3079 3080 3080 3082 3083 3083 3083 3083 3083 3085 3085 3085 3086 3086 3085 3086 3086 3086 3086 3086 3087 3087 3088 3088 3089 3090 3091 3091 3092 3093 3094 3095 3096 3097 3098 3099 3100 3102 3103 3104 3105 3106 3106 3107 3108 3108 3109
3028 3032 3037 3039 3042 3046 3048 3052 3058 3057 3045 3035 3035 3040 3044 3045 3045 3044 3044 3046 3049 3050 3048 3045 3044 3046 3047 3047 3050 3054 3056 3059 3062 3064 3067 3070 3072 3072 3073 3076 3077 3078 3079 3079 3079 3079 3080 3080 3081 3081 3081 3082 3082 3082 3083 3083 3083 3083 3083 3084 3084 3084 3085 3086 3086 3087 3088 3089 3090 3091 3092 3093 3094 3095 3096 3097 3099 3099 3100 3101 3102 3103 3104 3104 3105 3105
3023 3027 3031 3035 3038 3041 3043 3046 3046 3040 3031 3030 3033 3034 3036 3039 3040 3042 3042 3042 3044 3045 3043 3040 3039 3043 3046 3047 3050 3052 3054 3056 3056 3056 3058 3062 3064 3066 3068 3070 3073 3075 3075 3075 3075 3076 3076 3076 3077 3077 3078 3078 3079 3079 3080 3080 3080 3080 3080 3081 3081 3082 3082 3083 3083 3084 3085 3086 3087 3088 3089 3090 3091 3092 3093 3094 3095 3096 3097 3098 3098 3099 3100 3100 3101 3101
3022 3023 3025 3029 3032 3034 3036 3037 3036 3033 3030 3028 3026 3026 3028 3032 3035 3039 3039 3036 3037 3040 3039 3036 3038 3041 3043 3045 3048 3051 3053 3052 3049 3048 3052 3056 3058 3061 3062 3065 3069 3071 3071 3071 3072 3072 3072 3072 3073 3074 3074 3075 3076 3076 3076 3076 3076 3076 3077 3077 3078 3078 3079 3079 3080 3081 3082 3083 3084 3084 3086 3086 3087 3089 3089 3090 3091 3092 3093 3094 3095 3095 3096 3096 3097 3097
3020 3020 3022 3025 3027 3030 3034 3035 3037 3036 3026 3017 3017 3021 3026 3030 3035 3041 3039 3030 3029 3035 3037 3035 3035 3037 3039 3042 3045 3047 3049 3047 3041 3042 3049 3054 3055 3056 3058 3061 3064 3066 3066 3066 3066 3067 3067 3068 3069 3070 3071 3072 3072 3072 3072 3073 3073 3073 3073 3074 3074 3075 3075 3076 3077 3078 3079 3080 3080 3081 3082 3083 3084 3085 3085 3086 3087 3088 3089 3090 3090 3091 3091 3092 3092 3092
3017 3020 3022 3024 3024 3025 3027 3028 3029 3026 3015 3010 3015 3022 3026 3029 3034 3040 3038 3028 3023 3030 3033 3030 3030 3033 3036 3039 3041 3043 3043 3039 3034 3039 3048 3052 3052 3053 3055 3057 3059 3060 3060 3061 3061 3062 3063 3064 3065 3066 3067 3068 3068 3068 3068 3069 3069 3069 3070 3070 3070 3071 3072 3073 3074 3074 3075 3076 3077 3077 3078 3079 3080 3080 3081 3082 3083 3083 3084 3085 3085 3086 3086 3086 3086 3087
3012 3016 3019 3021 3019 3019 3021 3023 3022 3017 3011 3011 3016 3020 3024 3028 3032 3037 3036 3027 3024 3027 3026 3024 3026 3031 3033 3036 3037 3037 3036 3033 3034 3040 3046 3047 3048 3050 3051 3052 3053 3054 3055 3056 3058 3059 3059 3060 3061 3062 3062 3063 3063 3063 3064 3064 3065 3066 3066 3066 3067 3067 3068 3069 3069 3070 3071 3072 3072 3073 3074 3075 3075 3076 3077 3077 3078 3078 3079 3079 3080 3080 3080 3081 3081 3081
3009 3012 3014 3015 3015 3017 3018 3019 3017 3012 3009 3011 3015 3017 3022 3027 3029 3027 3024 3022 3025 3026 3024 3024 3027 3029 3031 3033 3033 3032 3032 3033 3035 3037 3040 3041 3043 3044 3045 3047 3049 3050 3051 3053 3054 3054 3055 3056 3056 3057 3057 3058 3058 3059 3060 3060 3061 3062 3062 3063 3063 3064 3064 3065 3065 3066 3067 3067 3068 3069 3070 3070 3071 3071 3072 3072 3072 3073 3073 3073 3074 3074 3074 3075 3075 3075
2999 3004 3008 3009 3012 3013 3014 3016 3017 3009 3003 3007 3014 3016 3018 3020 3017 3013 3015 3021 3025 3025 3025 3027 3028 3028 3030 3031 3031 3031 3031 3031 3031 3032 3034 3036 3037 3039 3041 3043 3044 3045 3047 3048 3049 3050 3051 3052 3052 3053 3053 3054 3055 3055 3056 3057 3057 3058 3059 3059 3060 3060 3060 3061 3062 3062 3063 3063 3064 3064 3065 3066 3066 3066 3067 3067 3067 3068 3068 3068 3068 3068 3069 3069 3070 3070
2989 2996 3000 3000 3003 3007 3011 3015 3015 3003 2993 3000 3009 3011 3010 3009 3008 3010 3018 3023 3023 3023 3025 3027 3026 3027 3029 3029 3030 3030 3030 3029 3029 3029 3030 3031 3032 3035 3036 3038 3040 3042 3043 3044 3045 3046 3047 3048 3048 3049 3049 3050 3051 3052 3052 3053 3054 3054 3055 3055 3056 3056 3057 3057 3058 3058 3058 3059 3059 3060 3060 3061 3061 3061 3062 3062 3062 3062 3062 3062 3063 3063 3063 3063 3064 3064
2985 2987 2988 2988 2993 2998 3001 3001 2999 2991 2989 2997 3003 3003 3003 3005 3009 3014 3018 3020 3021 3022 3024 3025 3025 3026 3027 3027 3029 3029 3028 3028 3028 3028 3028 3029 3030 3031 3033 3034 3036 3038 3039 3040 3041 3042 3043 3044 3044 3045 3046 3046 3047 3048 3048 3049 3049 3050 3051 3051 3052 3052 3052 3053 3053 3054 3054 3055 3055 3055 3056 3056 3056 3056 3057 3057 3057 3057 3057 3057 3057 3057 3058 3058 3058 3058
2976 2977 2980 2983 2987 2990 2990 2989 2989 2989 2991 2996 2999 3001 3004 3008 3011 3014 3016 3017 3020 3021 3022 3023 3024 3024 3025 3026 3027 3027 3027 3027 3026 3027 3027 3028 3028 3029 3031 3032 3034 3035 3036 3038 3038 3039 3040 3041 3041 3042 3042 3043 3044 3044 3044 3045 3045 3046 3046 3047 3047 3048 3048 3048 3049 3049 3050 3050 3050 3051 3051 3051 3051 3052 3052 3052 3052 3052 3052 3052 3052 3052 3052 3052 3052 3053
2974 2979 2982 2984 2987 2989 2988 2987 2988 2990 2991 2994 2997 3001 3005 3008 3010 3012 3014 3016 3018 3019 3020 3022 3022 3022 3023 3024 3025 3025 3025 3025 3025 3026 3026 3027 3028 3029 3030 3031 3032 3034 3034 3035 3036 3037 3038 3038 3039 3039 3039 3040 3041 3041 3041 3042 3042 3042 3043 3043 3043 3043 3044 3044 3044 3045 3045 3045 3046 3046 3046 3046 3047 3047 3047 3047 3047 3047 3047 3047 3047 3047 3047 3047 3047 3047
2973 2978 2981 2983 2986 2986 2983 2982 2986 2989 2990 2993 2997 2999 3003 3006 3009 3011 3013 3014 3016 3017 3019 3020 3020 3021 3022 3022 3023 3023 3023 3023 3024 3025 3025 3026 3027 3027 3028 3030 3031 3031 3032 3033 3034 3034 3035 3035 3036 3036 3037 3038 3038 3038 3038 3039 3039 3039 3039 3039 3039 3040 3040 3040 3040 3040 3041 3041 3041 3041 3041 3041 3041 3041 3041 3042 3041 3042 3042 3041 3041 3041 3041 3041 3042 3042
2969 2974 2977 2978 2979 2979 2977 2979 2984 2987 2989 2992 2995 2997 3001 3004 3007 3009 3012 3013 3014 3015 3016 3017 3018 3019 3019 3020 3020 3021 3021 3022 3023 3023 3024 3025 3025 3026 3027 3028 3028 3029 3030 3031 3031 3032 3032 3032 3033 3033 3034 3035 3035 3035 3036 3035 3036 3036 3035 3035 3036 3036 3036 3036 3036 3036 3036 3036 3036 3036 3036 3036 3036 3036 3036 3036 3036 3036 3036 3036 3036 3036 3036 3036 3037 3036
2966 2969 2970 2971 2973 2974 2973 2976 2980 2984 2986 2989 2992 2995 2998 3001 3004 3007 3009 3010 3011 3013 3014 3014 3015 3016 3017 3017 3018 3018 3019 3020 3020 3021 3022 3022 3023 3024 3024 3025 3026 3026 3027 3027 3028 3029 3029 3029 3030 3030 3031 3031 3032 3032 3032 3032 3032 3032 3032 3032 3032 3032 3032 3032 3032 3032 3032 3032 3031 3031 3031 3031 3031 3031 3031 3031 3031 3031 3031 3031 3031 3031 3031 3031 3031 3031
2961 2962 2965 2968 2969 2968 2968 2971 2976 2980 2983 2986 2989 2992 2995 2998 3001 3003 3004 3006 3008 3009 3010 3011 3012 3013 3014 3014 3015 3016 3016 3017 3017 3018 3019 3019 3020 3021 3021 3022 3023 3023 3024 3025 3025 3025 3026 3026 3027 3027 3027 3028 3028 3028 3029 3029 3029 3029 3029 3029 3028 3028 3028 3028 3028 3028 3028 3028 3027 3027 3027 3026 3026 3026 3026 3026 3026 3026 3026 3026 3026 3026 3026 3026 3026 3026
2956 2958 2962 2964 2964 2964 2967 2972 2976 2979 2981 2984 2988 2991 2993 2995 2997 2999 3001 3003 3004 3005 3006 3008 3009 3010 3010 3011 3012 3013 3013 3014 3014 3015 3015 3016 3017 3017 3018 3018 3019 3019 3020 3021 3021 3022 3023 3023 3024 3024 3024 3024 3025 3025 3025 3025 3024 3025 3025 3025 3025 3025 3025 3025 3025 3025 3024 3024 3023 3023 3022 3022 3022 3022 3022 3021 3021 3021 3021 3021 3021 3021 3021 3021 3021 3020